Regional Weather Roundup
Issued by NWS

Home | Current Version | Previous Version | Text Only | Print | Product List | Glossary Off
Versions: 1 2 3 4 5 6 7 8 9 10 11 12 13 14 15 16 17 18 19 20 21 22 23 24 25 26 27 28 29 30 31 32 33 34 35 36 37 38 39 40 41 42 43 44 45 46 47 48 49 50

000
ASUS43 KBIS 041502
RWRND

NORTH DAKOTA REGIONAL WEATHER ROUNDUP
NATIONAL WEATHER SERVICE BISMARCK ND
1000 AM CDT FRI SEP 04 2015

NOTE: "FAIR" INDICATES FEW OR NO CLOUDS BELOW 12,000 FEET WITH NO
SIGNIFICANT WEATHER AND/OR OBSTRUCTIONS TO VISIBILITY.


NDZ001>003-009>011-017-041600-
NORTHWEST NORTH DAKOTA

CITY           SKY/WX    TMP DP  RH WIND       PRES   REMARKS
WILLISTON      CLOUDY    61  52  72 NW21      29.84F
MINOT          CLOUDY    65  59  81 N13       29.81R
$$

NDZ018>021-031>035-040>046-041600-
SOUTHWEST NORTH DAKOTA

CITY           SKY/WX    TMP DP  RH WIND       PRES   REMARKS
BISMARCK       CLOUDY    74  71  91 SE6       29.74S
DICKINSON      CLOUDY    66  63  90 CALM      29.81R
GARRISON         N/A     69  65  86 NE15      29.79S
HETTINGER ARPT CLOUDY    72  62  71 N6        29.81F
$$

NDZ004>008-012>016-024-026-027-054-041600-
NORTHEAST NORTH DAKOTA

CITY           SKY/WX    TMP DP  RH WIND       PRES   REMARKS
GRAND FORKS    CLOUDY    76  71  85 SE14      29.76S
DEVILS LAKE    CLOUDY    75  66  73 SE8       29.76S
$$

NDZ022-023-025-028>030-036>039-047>053-041600-
SOUTHEAST NORTH DAKOTA

CITY           SKY/WX    TMP DP  RH WIND       PRES   REMARKS
FARGO          PTSUNNY   79  72  79 SE21      29.76F
JAMESTOWN      LGT RAIN  75  72  90 S9        29.77R
$$



USA.gov is the U.S. government's official web portal to all federal, state and local government web resources and services.